• Em Portugal
  • Lista de países
  • Para 7 dias
  • Temperatura da água
  • Mapas de satélite
  • Mapa do tempo
  • Widgets de tempo
  • user-avatar
    Iniciar Sessão

    Previsão horária em Fontvieille

    Hoje, 23 Outubro, Segunda-feira

    Tempo Temperatura Precipitação Vento Pressão Humidade
    00:00 +12°C° 0 mm 4 m/s 756 mmHg 36%
    01:00 +12°C° 0 mm 4 m/s 756 mmHg 35%
    02:00 +12°C° 0 mm 3 m/s 756 mmHg 33%
    03:00 +12°C° 0 mm 3 m/s 756 mmHg 31%
    04:00 +12°C° 0 mm 3 m/s 756 mmHg 30%
    05:00 +12°C° 0 mm 3 m/s 756 mmHg 29%
    06:00 +12°C° 0 mm 3 m/s 756 mmHg 28%
    07:00 +14°C° 0 mm 3 m/s 756 mmHg 26%
    08:00 +18°C° 0 mm 2 m/s 756 mmHg 23%
    09:00 +21°C° 0 mm 2 m/s 756 mmHg 21%
    10:00 +23°C° 0 mm 2 m/s 756 mmHg 20%
    11:00 +24°C° 0 mm 3 m/s 756 mmHg 20%
    12:00 +25°C° 0 mm 3 m/s 756 mmHg 19%
    13:00 +24°C° 0 mm 3 m/s 756 mmHg 21%
    14:00 +24°C° 0 mm 3 m/s 756 mmHg 23%
    15:00 +22°C° 0 mm 3 m/s 756 mmHg 24%
    16:00 +20°C° 0 mm 3 m/s 756 mmHg 28%
    17:00 +18°C° 0 mm 2 m/s 757 mmHg 32%
    18:00 +16°C° 0 mm 2 m/s 757 mmHg 35%
    19:00 +16°C° 0 mm 2 m/s 757 mmHg 33%
    20:00 +15°C° 0 mm 2 m/s 758 mmHg 31%
    21:00 +15°C° 0 mm 2 m/s 758 mmHg 28%
    22:00 +15°C° 0 mm 2 m/s 758 mmHg 28%
    23:00 +15°C° 0 mm 2 m/s 758 mmHg 27%

    Amanhã, 24 Outubro, Terça-feira

    Tempo Temperatura Precipitação Vento Pressão Humidade
    00:00 +15°C° 0 mm 2 m/s 759 mmHg 26%
    01:00 +15°C° 0 mm 2 m/s 759 mmHg 26%
    02:00 +15°C° 0 mm 2 m/s 759 mmHg 26%
    03:00 +15°C° 0 mm 2 m/s 759 mmHg 26%
    04:00 +15°C° 0 mm 2 m/s 759 mmHg 27%
    05:00 +15°C° 0 mm 2 m/s 759 mmHg 27%
    06:00 +15°C° 0 mm 2 m/s 760 mmHg 28%
    07:00 +19°C° 0 mm 1 m/s 760 mmHg 26%
    08:00 +21°C° 0 mm 1 m/s 760 mmHg 24%
    09:00 +22°C° 0 mm 0 m/s 761 mmHg 21%
    10:00 +25°C° 0 mm 1 m/s 760 mmHg 22%
    11:00 +26°C° 0 mm 1 m/s 760 mmHg 22%
    12:00 +26°C° 0 mm 2 m/s 760 mmHg 22%
    13:00 +26°C° 0 mm 2 m/s 760 mmHg 24%
    14:00 +25°C° 0 mm 2 m/s 760 mmHg 27%
    15:00 +24°C° 0 mm 3 m/s 760 mmHg 29%
    16:00 +21°C° 0 mm 3 m/s 760 mmHg 35%
    17:00 +19°C° 0 mm 3 m/s 761 mmHg 41%
    18:00 +17°C° 0 mm 3 m/s 761 mmHg 46%
    19:00 +17°C° 0 mm 3 m/s 761 mmHg 45%
    20:00 +17°C° 0 mm 2 m/s 762 mmHg 43%
    21:00 +17°C° 0 mm 2 m/s 762 mmHg 42%
    22:00 +17°C° 0 mm 2 m/s 762 mmHg 41%
    23:00 +17°C° 0 mm 2 m/s 762 mmHg 40%

    Depois de amanhã, 25 Outubro, Quarta-feira

    Tempo Temperatura Precipitação Vento Pressão Humidade
    00:00 +18°C° 0 mm 1 m/s 762 mmHg 39%
    01:00 +17°C° 0 mm 2 m/s 762 mmHg 39%
    02:00 +17°C° 0 mm 2 m/s 763 mmHg 39%
    03:00 +17°C° 0 mm 2 m/s 763 mmHg 38%
    04:00 +16°C° 0 mm 2 m/s 763 mmHg 38%
    05:00 +16°C° 0 mm 2 m/s 763 mmHg 38%
    06:00 +16°C° 0 mm 2 m/s 763 mmHg 38%
    07:00 +19°C° 0 mm 2 m/s 763 mmHg 34%
    08:00 +22°C° 0 mm 1 m/s 764 mmHg 31%
    09:00 +25°C° 0 mm 1 m/s 764 mmHg 28%
    10:00 +26°C° 0 mm 1 m/s 764 mmHg 28%
    11:00 +26°C° 0 mm 1 m/s 764 mmHg 28%
    12:00 +27°C° 0 mm 2 m/s 764 mmHg 28%
    13:00 +26°C° 0 mm 1 m/s 764 mmHg 31%
    14:00 +26°C° 0 mm 1 m/s 764 mmHg 34%
    15:00 +25°C° 0 mm 1 m/s 764 mmHg 36%
    16:00 +23°C° 0 mm 1 m/s 764 mmHg 41%
    17:00 +21°C° 0 mm 1 m/s 764 mmHg 46%
    18:00 +19°C° 0 mm 1 m/s 764 mmHg 51%
    19:00 +19°C° 0 mm 1 m/s 765 mmHg 50%
    20:00 +19°C° 0 mm 1 m/s 765 mmHg 49%
    21:00 +18°C° 0 mm 2 m/s 765 mmHg 48%
    22:00 +19°C° 0 mm 1 m/s 765 mmHg 48%
    23:00 +19°C° 0 mm 1 m/s 765 mmHg 48%

    26 Outubro, Quinta-feira

    Tempo Temperatura Precipitação Vento Pressão Humidade
    00:00 +19°C° 0 mm 1 m/s 765 mmHg 48%
    01:00 +19°C° 0 mm 1 m/s 765 mmHg 47%
    02:00 +19°C° 0 mm 1 m/s 765 mmHg 47%
    03:00 +19°C° 0 mm 1 m/s 765 mmHg 47%
    04:00 +19°C° 0 mm 1 m/s 765 mmHg 46%
    05:00 +18°C° 0 mm 1 m/s 765 mmHg 46%
    06:00 +18°C° 0 mm 1 m/s 765 mmHg 46%
    07:00 +21°C° 0 mm 1 m/s 765 mmHg 41%
    08:00 +24°C° 0 mm 1 m/s 765 mmHg 36%
    09:00 +26°C° 0 mm 1 m/s 765 mmHg 31%
    10:00 +27°C° 0 mm 2 m/s 765 mmHg 30%
    11:00 +28°C° 0 mm 2 m/s 765 mmHg 29%
    12:00 +28°C° 0 mm 3 m/s 765 mmHg 27%
    13:00 +28°C° 0 mm 3 m/s 765 mmHg 30%
    14:00 +27°C° 0 mm 3 m/s 764 mmHg 33%
    15:00 +26°C° 0 mm 3 m/s 764 mmHg 35%
    16:00 +24°C° 0 mm 3 m/s 764 mmHg 42%
    17:00 +21°C° 0 mm 3 m/s 764 mmHg 48%
    18:00 +19°C° 0 mm 3 m/s 764 mmHg 54%
    19:00 +19°C° 0 mm 3 m/s 764 mmHg 53%
    20:00 +19°C° 0 mm 3 m/s 764 mmHg 52%
    21:00 +19°C° 0 mm 3 m/s 764 mmHg 50%
    22:00 +19°C° 0 mm 3 m/s 764 mmHg 50%
    23:00 +19°C° 0 mm 3 m/s 764 mmHg 50%

    27 Outubro, Sexta-feira

    Tempo Temperatura Precipitação Vento Pressão Humidade
    00:00 +19°C° 0 mm 3 m/s 763 mmHg 50%
    01:00 +19°C° 0 mm 3 m/s 763 mmHg 50%
    02:00 +18°C° 0 mm 3 m/s 763 mmHg 49%
    03:00 +18°C° 0 mm 3 m/s 762 mmHg 49%
    04:00 +18°C° 0 mm 2 m/s 762 mmHg 48%
    05:00 +18°C° 0 mm 2 m/s 761 mmHg 48%
    06:00 +18°C° 0 mm 2 m/s 761 mmHg 47%
    07:00 +21°C° 0 mm 2 m/s 761 mmHg 43%
    08:00 +24°C° 0 mm 2 m/s 761 mmHg 39%
    09:00 +27°C° 0 mm 1 m/s 760 mmHg 35%
    10:00 +28°C° 0 mm 2 m/s 760 mmHg 34%
    11:00 +29°C° 0 mm 2 m/s 759 mmHg 34%
    12:00 +29°C° 0 mm 2 m/s 758 mmHg 33%
    13:00 +29°C° 0 mm 2 m/s 757 mmHg 37%
    14:00 +28°C° 0 mm 2 m/s 757 mmHg 40%
    15:00 +27°C° 0 mm 2 m/s 756 mmHg 44%
    16:00 +25°C° 0 mm 2 m/s 756 mmHg 49%
    17:00 +22°C° 0 mm 3 m/s 756 mmHg 55%
    18:00 +20°C° 0 mm 3 m/s 756 mmHg 60%
    19:00 +20°C° 0 mm 3 m/s 756 mmHg 57%
    20:00 +19°C° 0 mm 3 m/s 756 mmHg 54%
    21:00 +19°C° 0 mm 3 m/s 756 mmHg 51%
    22:00 +19°C° 0 mm 3 m/s 755 mmHg 50%
    23:00 +18°C° 0 mm 3 m/s 755 mmHg 49%

    28 Outubro, Sábado

    Tempo Temperatura Precipitação Vento Pressão Humidade
    00:00 +18°C° 0 mm 3 m/s 755 mmHg 47%
    01:00 +18°C° 0 mm 3 m/s 755 mmHg 47%
    02:00 +18°C° 0 mm 3 m/s 756 mmHg 46%
    03:00 +18°C° 0 mm 3 m/s 756 mmHg 46%
    04:00 +17°C° 0 mm 3 m/s 756 mmHg 47%
    05:00 +17°C° 0 mm 3 m/s 756 mmHg 49%
    06:00 +17°C° 0 mm 3 m/s 757 mmHg 51%
    07:00 +19°C° 0 mm 3 m/s 757 mmHg 46%
    08:00 +21°C° 0 mm 2 m/s 757 mmHg 41%
    09:00 +24°C° 0 mm 2 m/s 758 mmHg 36%
    10:00 +25°C° 0 mm 2 m/s 758 mmHg 35%
    11:00 +26°C° 0 mm 2 m/s 757 mmHg 35%
    12:00 +26°C° 0 mm 2 m/s 757 mmHg 34%
    13:00 +26°C° 0 mm 2 m/s 757 mmHg 38%
    14:00 +25°C° 0 mm 2 m/s 756 mmHg 41%
    15:00 +24°C° 0 mm 2 m/s 756 mmHg 44%
    16:00 +21°C° 0 mm 2 m/s 756 mmHg 51%
    17:00 +19°C° 0 mm 2 m/s 756 mmHg 58%
    18:00 +17°C° 0 mm 2 m/s 755 mmHg 65%
    19:00 +17°C° 0 mm 2 m/s 756 mmHg 61%
    20:00 +18°C° 0 mm 2 m/s 756 mmHg 57%
    21:00 +18°C° 0 mm 2 m/s 756 mmHg 53%
    22:00 +18°C° 0 mm 2 m/s 755 mmHg 50%
    23:00 +18°C° 0 mm 2 m/s 755 mmHg 46%

    29 Outubro, Domingo

    Tempo Temperatura Precipitação Vento Pressão Humidade
    00:00 +18°C° 0 mm 2 m/s 755 mmHg 43%
    01:00 +18°C° 0 mm 2 m/s 755 mmHg 41%
    02:00 +18°C° 0 mm 2 m/s 754 mmHg 40%
    03:00 +17°C° 0 mm 2 m/s 754 mmHg 38%
    04:00 +17°C° 0 mm 2 m/s 754 mmHg 37%
    05:00 +17°C° 0 mm 2 m/s 754 mmHg 36%
    06:00 +17°C° 0 mm 2 m/s 754 mmHg 35%
    07:00 +20°C° 0 mm 1 m/s 755 mmHg 33%
    08:00 +23°C° 0 mm 1 m/s 755 mmHg 31%
    09:00 +25°C° 0 mm 1 m/s 755 mmHg 29%
    10:00 +26°C° 0 mm 1 m/s 755 mmHg 30%
    11:00 +26°C° 0 mm 1 m/s 755 mmHg 31%
    12:00 +26°C° 0 mm 2 m/s 755 mmHg 32%
    13:00 +26°C° 0 mm 2 m/s 755 mmHg 37%
    14:00 +25°C° 0 mm 2 m/s 755 mmHg 42%
    15:00 +24°C° 0 mm 2 m/s 755 mmHg 47%
    16:00 +22°C° 0 mm 1 m/s 755 mmHg 55%
    17:00 +20°C° 0 mm 1 m/s 755 mmHg 63%
    18:00 +18°C° 0 mm 1 m/s 756 mmHg 71%
    19:00 +18°C° 0 mm 1 m/s 756 mmHg 68%
    20:00 +18°C° 0 mm 1 m/s 756 mmHg 66%
    21:00 +16°C° 0 mm 1 m/s 756 mmHg 63%
    22:00 +16°C° 0 mm 1 m/s 757 mmHg 62%
    23:00 +16°C° 0 mm 1 m/s 757 mmHg 60%
    Mostrar mais